TimeCDT,TemperatureF,Dew PointF,Humidity,Sea Level PressureIn,VisibilityMPH,Wind Direction,Wind SpeedMPH,Gust SpeedMPH,PrecipitationIn,Events,Conditions,WindDirDegrees,DateUTC
12:15 AM,64.4,62.6,94,29.92,5.0,SE,6.9,-,N/A,,Clear,130,2013-05-19 05:15:00
12:35 AM,64.4,62.6,94,29.93,5.0,ESE,4.6,-,N/A,,Clear,120,2013-05-19 05:35:00
12:55 AM,64.4,62.6,94,29.92,5.0,SE,5.8,-,N/A,,Clear,130,2013-05-19 05:55:00
1:15 AM,64.4,62.6,94,29.92,5.0,SE,5.8,-,N/A,,Clear,140,2013-05-19 06:15:00
1:35 AM,64.4,62.6,94,29.91,5.0,SE,8.1,-,N/A,,Clear,130,2013-05-19 06:35:00
1:55 AM,64.4,62.6,94,29.92,5.0,South,6.9,-,N/A,,Clear,170,2013-05-19 06:55:00
2:15 AM,62.6,62.6,100,29.92,5.0,SE,6.9,-,N/A,,Clear,140,2013-05-19 07:15:00
2:35 AM,62.6,62.6,100,29.91,5.0,SE,5.8,-,N/A,,Clear,140,2013-05-19 07:35:00
2:55 AM,64.4,62.6,94,29.91,5.0,SSE,6.9,-,N/A,,Clear,150,2013-05-19 07:55:00
3:15 AM,62.6,62.6,100,29.91,5.0,SSE,6.9,-,N/A,,Clear,150,2013-05-19 08:15:00
3:35 AM,62.6,62.6,100,29.91,5.0,SE,6.9,-,N/A,,Clear,130,2013-05-19 08:35:00
3:55 AM,62.6,62.6,100,29.91,5.0,SE,6.9,-,N/A,,Clear,130,2013-05-19 08:55:00
4:15 AM,62.6,62.6,100,29.91,5.0,SE,6.9,-,N/A,,Clear,140,2013-05-19 09:15:00
4:35 AM,64.4,62.6,94,29.91,5.0,SE,6.9,-,N/A,,Clear,140,2013-05-19 09:35:00
4:55 AM,64.4,62.6,94,29.92,5.0,SSE,5.8,-,N/A,,Scattered Clouds,150,2013-05-19 09:55:00
5:15 AM,64.4,62.6,94,29.92,5.0,SSE,6.9,-,N/A,,Mostly Cloudy,150,2013-05-19 10:15:00
5:35 AM,64.4,62.6,94,29.91,5.0,SE,6.9,-,N/A,,Scattered Clouds,130,2013-05-19 10:35:00
5:55 AM,64.4,62.6,94,29.90,4.0,SE,9.2,-,N/A,,Clear,130,2013-05-19 10:55:00
6:15 AM,64.4,62.6,94,29.90,5.0,SE,9.2,-,N/A,,Clear,130,2013-05-19 11:15:00
6:35 AM,64.4,62.6,94,29.89,5.0,ESE,6.9,-,N/A,,Scattered Clouds,120,2013-05-19 11:35:00
6:55 AM,66.2,62.6,88,29.89,5.0,ESE,8.1,-,N/A,,Scattered Clouds,120,2013-05-19 11:55:00
7:15 AM,66.2,62.6,88,29.89,7.0,SE,6.9,-,N/A,,Clear,130,2013-05-19 12:15:00
7:35 AM,69.8,62.6,78,29.90,7.0,SE,6.9,-,N/A,,Clear,140,2013-05-19 12:35:00
7:55 AM,69.8,62.6,78,29.90,7.0,SE,9.2,-,N/A,,Clear,130,2013-05-19 12:55:00
8:15 AM,71.6,62.6,73,29.90,7.0,SE,11.5,-,N/A,,Clear,130,2013-05-19 13:15:00
8:35 AM,73.4,64.4,73,29.89,10.0,SE,10.4,-,N/A,,Clear,130,2013-05-19 13:35:00
8:55 AM,75.2,64.4,69,29.89,7.0,SE,10.4,-,N/A,,Clear,130,2013-05-19 13:55:00
9:15 AM,75.2,66.2,73,29.90,10.0,SSE,13.8,18.4,N/A,,Clear,150,2013-05-19 14:15:00
9:35 AM,75.2,66.2,73,29.88,10.0,SE,15.0,18.4,N/A,,Clear,140,2013-05-19 14:35:00
9:55 AM,77.0,66.2,69,29.88,10.0,SE,11.5,-,N/A,,Clear,130,2013-05-19 14:55:00
10:15 AM,78.8,66.2,65,29.88,7.0,SE,11.5,16.1,N/A,,Clear,140,2013-05-19 15:15:00
10:35 AM,78.8,66.2,65,29.87,10.0,SE,10.4,-,N/A,,Clear,140,2013-05-19 15:35:00
10:55 AM,80.6,66.2,61,29.91,7.0,South,10.4,17.3,N/A,,Clear,190,2013-05-19 15:55:00
11:15 AM,78.8,68.0,69,29.91,7.0,South,8.1,-,N/A,,Clear,170,2013-05-19 16:15:00
11:35 AM,80.6,68.0,65,29.90,7.0,South,9.2,-,N/A,,Clear,180,2013-05-19 16:35:00
11:55 AM,80.6,69.8,70,29.88,7.0,SSE,13.8,-,N/A,,Clear,150,2013-05-19 16:55:00
12:15 PM,82.4,69.8,66,29.87,7.0,SSE,13.8,-,N/A,,Clear,150,2013-05-19 17:15:00
12:35 PM,84.2,69.8,62,29.87,7.0,SSE,12.7,-,N/A,,Clear,150,2013-05-19 17:35:00
12:55 PM,84.2,69.8,62,29.88,7.0,SSE,11.5,-,N/A,,Clear,160,2013-05-19 17:55:00
1:15 PM,86.0,69.8,58,29.86,7.0,SSE,9.2,-,N/A,,Clear,160,2013-05-19 18:15:00
1:35 PM,86.0,69.8,58,29.83,7.0,SSE,15.0,18.4,N/A,,Clear,150,2013-05-19 18:35:00
1:55 PM,87.8,69.8,55,29.83,10.0,SSE,15.0,-,N/A,,Clear,160,2013-05-19 18:55:00
2:15 PM,87.8,69.8,55,29.82,7.0,SSE,13.8,18.4,N/A,,Clear,150,2013-05-19 19:15:00
2:35 PM,87.8,69.8,55,29.80,7.0,SE,16.1,-,N/A,,Clear,130,2013-05-19 19:35:00
2:55 PM,87.8,69.8,55,29.79,10.0,SE,15.0,21.9,N/A,,Clear,140,2013-05-19 19:55:00
3:15 PM,87.8,69.8,55,29.79,7.0,SSE,16.1,-,N/A,,Clear,160,2013-05-19 20:15:00
3:35 PM,84.2,69.8,62,29.79,10.0,SSE,13.8,21.9,N/A,,Clear,150,2013-05-19 20:35:00
3:55 PM,86.0,69.8,58,29.78,7.0,SSE,16.1,21.9,N/A,,Clear,160,2013-05-19 20:55:00
4:15 PM,87.8,69.8,55,29.77,7.0,South,16.1,-,N/A,,Clear,170,2013-05-19 21:15:00
4:35 PM,87.8,69.8,55,29.77,7.0,SSE,15.0,23.0,N/A,,Clear,160,2013-05-19 21:35:00
4:55 PM,86.0,69.8,58,29.76,10.0,SSE,16.1,21.9,N/A,,Clear,160,2013-05-19 21:55:00
5:15 PM,87.8,68.0,52,29.76,10.0,SSE,15.0,25.3,N/A,,Clear,160,2013-05-19 22:15:00
5:35 PM,87.8,66.2,49,29.75,10.0,South,16.1,25.3,N/A,,Clear,170,2013-05-19 22:35:00
5:55 PM,87.8,66.2,49,29.74,10.0,SSE,15.0,23.0,N/A,,Clear,160,2013-05-19 22:55:00
6:15 PM,86.0,68.0,55,29.73,10.0,SSE,19.6,25.3,N/A,,Clear,160,2013-05-19 23:15:00
6:35 PM,84.2,68.0,58,29.73,10.0,South,16.1,24.2,N/A,,Clear,170,2013-05-19 23:35:00
6:55 PM,84.2,66.2,55,29.74,10.0,South,16.1,24.2,N/A,,Clear,170,2013-05-19 23:55:00
7:15 PM,82.4,68.0,62,29.74,10.0,South,15.0,21.9,N/A,,Clear,170,2013-05-20 00:15:00
7:35 PM,82.4,68.0,62,29.75,10.0,SSE,15.0,20.7,N/A,,Clear,160,2013-05-20 00:35:00
7:55 PM,80.6,68.0,65,29.75,10.0,SSE,11.5,-,N/A,,Clear,160,2013-05-20 00:55:00
8:15 PM,80.6,68.0,65,29.76,10.0,SSE,13.8,20.7,N/A,,Clear,160,2013-05-20 01:15:00
8:35 PM,78.8,68.0,69,29.77,10.0,SSE,13.8,19.6,N/A,,Clear,160,2013-05-20 01:35:00
8:55 PM,78.8,66.2,65,29.77,10.0,SSE,15.0,-,N/A,,Clear,160,2013-05-20 01:55:00
9:15 PM,78.8,66.2,65,29.77,10.0,SSE,15.0,24.2,N/A,,Clear,160,2013-05-20 02:15:00
9:35 PM,77.0,66.2,69,29.77,10.0,SSE,13.8,20.7,N/A,,Clear,160,2013-05-20 02:35:00
9:55 PM,77.0,66.2,69,29.78,10.0,South,17.3,21.9,N/A,,Clear,170,2013-05-20 02:55:00
10:15 PM,75.2,64.4,69,29.78,10.0,SSE,17.3,21.9,N/A,,Clear,160,2013-05-20 03:15:00
10:35 PM,75.2,64.4,69,29.77,10.0,SSE,16.1,24.2,N/A,,Clear,160,2013-05-20 03:35:00
10:55 PM,75.2,62.6,65,29.79,10.0,South,17.3,-,N/A,,Clear,170,2013-05-20 03:55:00
11:15 PM,75.2,62.6,65,29.80,10.0,South,16.1,23.0,N/A,,Clear,180,2013-05-20 04:15:00
11:35 PM,75.2,62.6,65,29.81,10.0,South,16.1,21.9,N/A,,Clear,180,2013-05-20 04:35:00
11:55 PM,73.4,62.6,69,29.81,10.0,South,12.7,20.7,N/A,,Clear,180,2013-05-20 04:55:00